Location: Alafon
(8.4500°N, 4.2333°E)
Time: 17:54:51
(UTC+00:00)

deb Explorer IX - Pass Details

Date: 30 July 2021
Orbit: 545 x 1091 km, 38.8° (Epoch: 20 September)

Event Time Altitude Azimuth Distance (km) Brightness Sun altitude
Rises 21:46:10 0° 294° (WNW) 3,866 ? -49.5°
Reaches altitude 10° 21:49:10 10° 285° (WNW) 2,928 ? -50.0°
Enters shadow 21:49:50 13° 282° (WNW) 2,732 ? -50.2°
Maximum altitude 21:55:34 34° 223° (SW) 1,692 - -51.2°
Drops below altitude 10° 22:01:47 10° 160° (SSE) 2,826 - -52.3°
Sets 22:04:40 0° 151° (SSE) 3,716 - -52.8°
